Tracking 20712 objects as of 29-May-2020
HD Live streaming from Space Station
objects crossing your sky now

MSG 1 DEB (BAFFLE COVER)

Track MSG 1 DEB (BAFFLE COVER) now!


NORAD ID: 39999
Int'l Code: 2002-040F
Perigee: 34,955.1 km
Apogee: 35,692.3 km
Inclination: 9.8 °
Period: 1,412.1 minutes
Semi major axis: 41694 km
RCS: 0.003 m2 (small)
Launch date: August 28, 2002
Source: European Organisation for the Exploitation of Meteorological Satellites (EUME)
Launch site: FRENCH GUIANA (FRGUI)

Note: This is SATELLITE DEBRIS
aabbcc
Your satellite tracking list
Your tracking list is empty




NASA's NSSDC Master Catalog

Two Line Element Set (TLE):
1 39999U 02040F   18255.77263449 -.00000196 +00000-0 +00000-0 0  9995
2 39999 009.8396 032.5918 0088407 057.1580 232.7763 01.01972268013186
Source of the keplerian elements: AFSPC